Terug naar catalogus

STARLINK-2285

ActiefCommunicatieVLEO
NORAD 48019·PAYLOAD·🇺🇸 United States

Gelanceerd Mar 24, 2021 vanaf Cape Canaveral Space Force Station

Loading…

Volgende Passages (komende 24 uur)

TLE

VersSource: CelesTrak SupGP

Epoch: Sep 14, 2026, 21:25 UTC

1 48019C 21024AU  26257.89284722 -.00026367  00000+0 -84795-3 0  2573
2 48019  53.1580 146.3626 0001274  86.5362 276.2130 15.31712879    14

Volg STARLINK-2285 in realtime met AllMySat

Download on the App Store